Regional Weather Roundup
Issued by NWS

Home | Current Version | Previous Version | Graphics & Text | Print | Product List | Glossary On
Versions: 1 2 3 4 5 6 7 8 9 10 11 12 13 14 15 16 17 18 19 20 21 22 23 24 25 26 27 28 29 30 31 32 33 34 35 36 37 38 39 40 41 42 43 44 45 46 47 48 49 50
000
ASUS43 KIND 230659
RWRIN

WEATHER ROUNDUP FOR INDIANA
NATIONAL WEATHER SERVICE INDIANAPOLIS IN
300 AM EDT SUN APR 23 2017

NOTE: "FAIR" INDICATES FEW OR NO CLOUDS BELOW 12,000 FEET WITH NO
SIGNIFICANT WEATHER AND/OR OBSTRUCTIONS TO VISIBILITY.

* - STATION DOES NOT REPORT WEATHER SUCH AS PRECIPITATION OR FOG.

+ - STATION NOT QUALITY CONTROLLED BY THE NATIONAL WEATHER SERVICE.
    USE DATA WITH CAUTION...ESPECIALLY DEWPOINT AND RELATIVE
    HUMIDITY OBSERVATIONS.

INZ001>003-010>013-019-020-230800-
NORTHWEST INDIANA

CITY           SKY/WX    TMP DP  RH WIND       PRES   REMARKS
KNOX *+        CLEAR     36  12  38 N5        30.13F
MONTICELLO +   CLEAR     42  29  60 NE5       30.12F

$$

LMZ046-743>745-230800-
SOUTHERN LAKE MICHIGAN

STATION/POSITION TIME  TEMP    WIND        PRES    WAVE
                       AIR SEA DIR/SP/G            HT
                 (UTC) (F)     (DEG/KT/KT) (MB)    (FT)
BURNS HARBOR     0640   46     100/  5/  6 1020.7F
MICHIGAN CITY    0630   43     100/  4/  4   N/A

$$

INZ004-005-014>016-021>024-230800-
NORTH CENTRAL INDIANA

CITY           SKY/WX    TMP DP  RH WIND       PRES   REMARKS
GOSHEN         CLEAR     40  32  73 CALM      30.13F
SOUTH BEND     PTCLDY    35  27  72 CALM      30.13F

$$

INZ006>009-017-018-025>027-230800-
NORTHEAST INDIANA

CITY           SKY/WX    TMP DP  RH WIND       PRES   REMARKS
ANGOLA *+      CLEAR     37  30  75 CALM      30.12F
FORT WAYNE     CLEAR     40  32  73 N5        30.12F
KENDALLVILLE + CLEAR     40  35  84 CALM      30.12F

$$

INZ028-029-035-036-043>045-051>053-230800-
WEST CENTRAL INDIANA

CITY           SKY/WX    TMP DP  RH WIND       PRES   REMARKS
CRAWFORDSVL +  CLEAR     39  34  80 N7        30.09F
LAFAYETTE      CLEAR     41  31  67 NE7       30.11F
TERRE HAUTE    CLEAR     43  34  70 N8        30.07F

$$

INZ030>032-037>040-046>048-054>057-064-065-230800-
CENTRAL INDIANA

CITY           SKY/WX    TMP DP  RH WIND       PRES   REMARKS
CP ATTERBURY + CLEAR     41  34  75 NE5       30.07F
INDIANAPOLIS   CLEAR     45  30  55 NE10      30.07F
-EAGLE CREEK   CLEAR     45  30  55 NE5       30.07F
KOKOMO +       CLEAR     41  33  73 N8        30.11F
SHELBYVILLE    PTCLDY    45  34  65 NE9       30.06F

$$

INZ033-034-041-042-049-050-058-059-230800-
EAST CENTRAL INDIANA

CITY           SKY/WX    TMP DP  RH WIND       PRES   REMARKS
MUNCIE         CLEAR     40  31  70 NE6       30.09F
RICHMOND +     CLEAR     41  34  75 NE13      30.07F

$$

INZ060-061-067>069-081>083-085>088-230800-
SOUTHWEST INDIANA

CITY           SKY/WX    TMP DP  RH WIND       PRES   REMARKS
EVANSVILLE     CLOUDY    51  38  60 NE12      29.99F
HUNTINGBURG *+ CLOUDY    50  37  61 NE12      30.00F

$$

INZ062-063-066-070>080-084-089>092-230800-
SOUTH CENTRAL AND SOUTHEAST INDIANA

CITY           SKY/WX    TMP DP  RH WIND       PRES   REMARKS
BLOOMINGTON    PTCLDY    46  32  58 NE9       30.04F
MADISON *+     CLOUDY    45  36  70 NE8       30.03F
SEYMOUR +      CLEAR     43  36  75 N7        30.04F

$$





USA.gov is the U.S. government's official web portal to all federal, state and local government web resources and services.